CTV906 WIII-WIGG

Flight info

Callsign CTV906
Flight time 0h 57m
Altitude 28000
Route GUDBA T6 UDUTO
Aircraft A320/M-SDE2E3FGHIRWY/LB1

Departure

Time 2026-05-07 07:59
Airport Soekarno-Hatta International Airport (WIII)

Arrival

Time 2026-05-07 08:56
Airport Fatmawati Soekarno Airport (WIGG)
Time Latitude Longitude Altitude Speed Heading
2026-05-07 07:13 -6.13226 106.65335 38 ft 0 kts 321°
2026-05-07 07:46 -6.13231 106.65339 36 ft 4 kts 321°
2026-05-07 07:47 -6.13252 106.65356 38 ft 4 kts 321°
2026-05-07 07:47 -6.13269 106.65370 38 ft 4 kts 313°
2026-05-07 07:47 -6.13279 106.65390 38 ft 4 kts 253°
2026-05-07 07:47 -6.13273 106.65408 38 ft 0 kts 249°
2026-05-07 07:50 -6.13277 106.65396 38 ft 6 kts 249°
2026-05-07 07:50 -6.13297 106.65345 38 ft 8 kts 249°
2026-05-07 07:50 -6.13319 106.65287 38 ft 10 kts 249°
2026-05-07 07:51 -6.13337 106.65227 38 ft 8 kts 267°
2026-05-07 07:51 -6.13315 106.65181 38 ft 7 kts 306°
2026-05-07 07:51 -6.13266 106.65116 38 ft 15 kts 313°
2026-05-07 07:51 -6.13179 106.65067 38 ft 15 kts 336°
2026-05-07 07:52 -6.13104 106.65028 38 ft 9 kts 314°
2026-05-07 07:52 -6.13095 106.64977 38 ft 7 kts 252°
2026-05-07 07:52 -6.13111 106.64936 38 ft 6 kts 250°
2026-05-07 07:52 -6.13123 106.64902 38 ft 5 kts 250°
2026-05-07 07:53 -6.13135 106.64871 38 ft 7 kts 248°
2026-05-07 07:53 -6.13129 106.64817 38 ft 9 kts 316°
2026-05-07 07:53 -6.13062 106.64788 44 ft 11 kts 338°
2026-05-07 07:53 -6.13021 106.64772 49 ft 1 kts 338°
2026-05-07 07:54 -6.13019 106.64771 49 ft 1 kts 338°
2026-05-07 07:54 -6.12998 106.64762 52 ft 5 kts 338°
2026-05-07 07:54 -6.12955 106.64745 57 ft 6 kts 338°
2026-05-07 07:54 -6.12930 106.64734 59 ft 6 kts 338°
2026-05-07 07:55 -6.12877 106.64713 51 ft 12 kts 338°
2026-05-07 07:55 -6.12778 106.64674 41 ft 17 kts 338°
2026-05-07 07:55 -6.12651 106.64623 38 ft 21 kts 339°
2026-05-07 07:55 -6.12510 106.64568 38 ft 23 kts 339°
2026-05-07 07:56 -6.12359 106.64508 38 ft 24 kts 338°
2026-05-07 07:56 -6.12202 106.64447 38 ft 22 kts 338°
2026-05-07 07:56 -6.12101 106.64380 39 ft 16 kts 279°
2026-05-07 07:56 -6.12137 106.64279 37 ft 16 kts 248°
2026-05-07 07:57 -6.12186 106.64157 39 ft 20 kts 248°
2026-05-07 07:57 -6.12238 106.64027 39 ft 19 kts 248°
2026-05-07 07:57 -6.12237 106.63910 39 ft 16 kts 304°
2026-05-07 07:57 -6.12141 106.63901 42 ft 15 kts 17°
2026-05-07 07:58 -6.12075 106.63948 40 ft 10 kts 68°
2026-05-07 07:58 -6.12032 106.64055 40 ft 36 kts 68°
2026-05-07 07:58 -6.11846 106.64516 41 ft 103 kts 68°
2026-05-07 07:58 -6.11520 106.65341 38 ft 153 kts 68°
2026-05-07 07:59 -6.11092 106.66425 369 ft 170 kts 67°
2026-05-07 07:59 -6.10658 106.67515 1109 ft 167 kts 64°
2026-05-07 07:59 -6.09869 106.68398 1471 ft 183 kts 32°
2026-05-07 07:59 -6.08704 106.69091 1687 ft 206 kts 32°
2026-05-07 08:00 -6.07401 106.69888 1958 ft 232 kts 33°
2026-05-07 08:00 -6.05964 106.70779 2411 ft 252 kts 33°
2026-05-07 08:00 -6.04456 106.71721 3181 ft 258 kts 34°
2026-05-07 08:00 -6.02914 106.72677 3976 ft 263 kts 34°
2026-05-07 08:01 -6.01277 106.73521 4772 ft 270 kts 19°
2026-05-07 08:01 -5.99383 106.73667 5541 ft 281 kts 352°
2026-05-07 08:01 -5.97569 106.72911 6310 ft 290 kts 324°
2026-05-07 08:01 -5.96267 106.71320 7079 ft 297 kts 294°
2026-05-07 08:02 -5.95671 106.69324 7863 ft 300 kts 284°
2026-05-07 08:02 -5.95174 106.67311 8630 ft 303 kts 284°
2026-05-07 08:02 -5.94667 106.65249 9381 ft 305 kts 284°
2026-05-07 08:02 -5.94153 106.63167 10112 ft 308 kts 284°
2026-05-07 08:03 -5.93628 106.61059 10688 ft 318 kts 285°
2026-05-07 08:03 -5.92918 106.58872 10832 ft 341 kts 290°
2026-05-07 08:03 -5.92099 106.56571 11139 ft 356 kts 290°
2026-05-07 08:03 -5.91257 106.54208 11712 ft 362 kts 290°
2026-05-07 08:04 -5.90410 106.51821 12356 ft 365 kts 290°
2026-05-07 08:04 -5.89556 106.49412 12988 ft 368 kts 290°
2026-05-07 08:04 -5.88698 106.46981 13596 ft 371 kts 290°
2026-05-07 08:04 -5.87833 106.44525 14156 ft 375 kts 290°
2026-05-07 08:05 -5.87245 106.42855 14535 ft 377 kts 290°
2026-05-07 08:05 -5.86078 106.39539 15272 ft 382 kts 290°
2026-05-07 08:05 -5.85479 106.37838 15641 ft 384 kts 290°
2026-05-07 08:05 -5.84582 106.35296 16155 ft 388 kts 290°
2026-05-07 08:06 -5.83380 106.31898 16835 ft 392 kts 290°
2026-05-07 08:06 -5.82761 106.30147 17176 ft 394 kts 290°
2026-05-07 08:06 -5.81839 106.27541 17649 ft 398 kts 290°
2026-05-07 08:06 -5.80909 106.24910 18120 ft 401 kts 290°
2026-05-07 08:07 -5.79972 106.22258 18583 ft 405 kts 290°
2026-05-07 08:07 -5.79039 106.19625 19037 ft 407 kts 290°
2026-05-07 08:07 -5.78074 106.16900 19513 ft 410 kts 290°
2026-05-07 08:07 -5.77119 106.14198 19956 ft 412 kts 290°
2026-05-07 08:08 -5.76158 106.11482 20371 ft 414 kts 290°
2026-05-07 08:08 -5.75192 106.08749 20777 ft 417 kts 290°
2026-05-07 08:08 -5.74232 106.06039 21172 ft 419 kts 290°
2026-05-07 08:08 -5.73251 106.03276 21573 ft 421 kts 290°
2026-05-07 08:09 -5.72250 106.00459 21966 ft 423 kts 290°
2026-05-07 08:09 -5.71259 105.97667 22341 ft 426 kts 290°
2026-05-07 08:09 -5.70264 105.94859 22694 ft 428 kts 290°
2026-05-07 08:09 -5.69265 105.92035 23054 ft 430 kts 290°
2026-05-07 08:10 -5.68264 105.89198 23402 ft 432 kts 290°
2026-05-07 08:10 -5.67256 105.86348 23740 ft 434 kts 291°
2026-05-07 08:10 -5.66240 105.83484 24064 ft 436 kts 291°
2026-05-07 08:10 -5.65220 105.80614 24397 ft 438 kts 291°
2026-05-07 08:11 -5.64191 105.77725 24704 ft 440 kts 291°
2026-05-07 08:11 -5.63158 105.74824 24807 ft 442 kts 291°
2026-05-07 08:11 -5.62127 105.71920 24813 ft 441 kts 290°
2026-05-07 08:11 -5.61103 105.69017 24815 ft 441 kts 290°
2026-05-07 08:12 -5.60079 105.66115 24814 ft 441 kts 291°
2026-05-07 08:12 -5.59053 105.63215 24812 ft 441 kts 291°
2026-05-07 08:12 -5.58025 105.60311 24814 ft 441 kts 291°
2026-05-07 08:12 -5.56987 105.57412 24812 ft 441 kts 293°
2026-05-07 08:13 -5.55642 105.54654 24820 ft 440 kts 303°
2026-05-07 08:13 -5.53881 105.52140 25115 ft 441 kts 308°
2026-05-07 08:13 -5.52050 105.49660 25430 ft 443 kts 308°
2026-05-07 08:13 -5.50221 105.47161 25728 ft 445 kts 307°
2026-05-07 08:14 -5.48413 105.44682 26008 ft 447 kts 307°
2026-05-07 08:14 -5.46571 105.42155 26283 ft 450 kts 307°
2026-05-07 08:14 -5.44722 105.39616 26549 ft 451 kts 307°
2026-05-07 08:14 -5.42864 105.37067 26805 ft 453 kts 307°
2026-05-07 08:15 -5.40995 105.34509 27057 ft 455 kts 307°
2026-05-07 08:15 -5.39117 105.31940 27308 ft 457 kts 307°
2026-05-07 08:15 -5.37231 105.29360 27564 ft 459 kts 307°
2026-05-07 08:15 -5.35339 105.26771 27760 ft 461 kts 307°
2026-05-07 08:16 -5.33455 105.24196 27812 ft 452 kts 307°
2026-05-07 08:16 -5.31607 105.21673 27812 ft 446 kts 307°
2026-05-07 08:16 -5.29774 105.19170 27813 ft 444 kts 307°
2026-05-07 08:16 -5.27948 105.16671 27813 ft 444 kts 307°
2026-05-07 08:17 -5.26124 105.14175 27813 ft 444 kts 307°
2026-05-07 08:17 -5.24298 105.11680 27813 ft 443 kts 307°
2026-05-07 08:17 -5.22493 105.09217 27812 ft 444 kts 307°
2026-05-07 08:17 -5.20665 105.06724 27813 ft 444 kts 307°
2026-05-07 08:18 -5.18818 105.04198 27813 ft 444 kts 307°
2026-05-07 08:18 -5.16993 105.01703 27810 ft 443 kts 307°
2026-05-07 08:18 -5.15168 104.99211 27808 ft 443 kts 307°
2026-05-07 08:18 -5.13343 104.96720 27805 ft 443 kts 307°
2026-05-07 08:19 -5.11517 104.94231 27802 ft 443 kts 307°
2026-05-07 08:19 -5.09690 104.91743 27798 ft 443 kts 307°
2026-05-07 08:19 -5.07866 104.89254 27792 ft 443 kts 307°
2026-05-07 08:19 -5.06043 104.86764 27788 ft 443 kts 307°
2026-05-07 08:20 -5.04245 104.84308 27796 ft 443 kts 307°
2026-05-07 08:20 -5.02422 104.81817 27796 ft 443 kts 307°
2026-05-07 08:20 -5.00596 104.79327 27792 ft 443 kts 307°
2026-05-07 08:20 -4.98769 104.76836 27795 ft 443 kts 307°
2026-05-07 08:21 -4.96942 104.74345 27797 ft 444 kts 307°
2026-05-07 08:21 -4.95113 104.71853 27797 ft 444 kts 307°
2026-05-07 08:21 -4.93284 104.69359 27798 ft 444 kts 307°
2026-05-07 08:21 -4.91456 104.66864 27799 ft 444 kts 307°
2026-05-07 08:22 -4.89627 104.64368 27798 ft 444 kts 307°
2026-05-07 08:22 -4.87798 104.61873 27798 ft 444 kts 307°
2026-05-07 08:22 -4.85964 104.59382 27797 ft 444 kts 307°
2026-05-07 08:22 -4.84129 104.56891 27797 ft 444 kts 307°
2026-05-07 08:23 -4.82340 104.54366 27797 ft 445 kts 302°
2026-05-07 08:23 -4.80925 104.51609 27798 ft 446 kts 294°
2026-05-07 08:23 -4.79708 104.48751 27798 ft 446 kts 294°
2026-05-07 08:23 -4.78480 104.45896 27799 ft 446 kts 294°
2026-05-07 08:24 -4.77242 104.43042 27799 ft 446 kts 294°
2026-05-07 08:24 -4.75998 104.40188 27799 ft 447 kts 294°
2026-05-07 08:24 -4.74753 104.37329 27801 ft 447 kts 294°
2026-05-07 08:24 -4.73510 104.34468 27803 ft 448 kts 294°
2026-05-07 08:25 -4.72271 104.31612 27805 ft 448 kts 294°
2026-05-07 08:25 -4.71029 104.28742 27806 ft 448 kts 294°
2026-05-07 08:25 -4.69792 104.25883 27807 ft 448 kts 294°
2026-05-07 08:25 -4.68554 104.23020 27807 ft 448 kts 294°
2026-05-07 08:26 -4.66075 104.17296 27806 ft 447 kts 294°
2026-05-07 08:26 -4.64836 104.14430 27805 ft 447 kts 294°
2026-05-07 08:26 -4.63600 104.11569 27802 ft 447 kts 294°
2026-05-07 08:27 -4.62364 104.08715 27799 ft 447 kts 294°
2026-05-07 08:27 -4.61123 104.05853 27789 ft 447 kts 294°
2026-05-07 08:27 -4.59884 104.03004 27791 ft 447 kts 294°
2026-05-07 08:27 -4.58644 104.00150 27788 ft 447 kts 294°
2026-05-07 08:28 -4.57406 103.97292 27783 ft 447 kts 294°
2026-05-07 08:28 -4.56172 103.94436 27783 ft 447 kts 294°
2026-05-07 08:28 -4.54937 103.91578 27775 ft 447 kts 294°
2026-05-07 08:28 -4.53701 103.88719 27780 ft 447 kts 294°
2026-05-07 08:29 -4.52459 103.85858 27775 ft 448 kts 294°
2026-05-07 08:29 -4.51215 103.82996 27781 ft 448 kts 294°
2026-05-07 08:29 -4.49966 103.80135 27779 ft 448 kts 294°
2026-05-07 08:29 -4.48718 103.77273 27784 ft 448 kts 294°
2026-05-07 08:30 -4.47479 103.74426 27521 ft 444 kts 294°
2026-05-07 08:30 -4.46254 103.71605 27071 ft 437 kts 293°
2026-05-07 08:30 -4.45056 103.68837 26622 ft 431 kts 293°
2026-05-07 08:30 -4.43870 103.66097 26171 ft 425 kts 293°
2026-05-07 08:31 -4.42701 103.63401 25701 ft 420 kts 293°
2026-05-07 08:31 -4.41558 103.60770 25216 ft 416 kts 294°
2026-05-07 08:31 -4.40393 103.58092 24708 ft 412 kts 293°
2026-05-07 08:31 -4.39255 103.55468 24206 ft 409 kts 293°
2026-05-07 08:32 -4.38141 103.52900 23731 ft 406 kts 293°
2026-05-07 08:32 -4.37019 103.50317 23233 ft 403 kts 293°
2026-05-07 08:32 -4.35904 103.47752 22738 ft 400 kts 294°
2026-05-07 08:32 -4.34795 103.45206 22244 ft 398 kts 294°
2026-05-07 08:33 -4.33695 103.42674 21741 ft 395 kts 293°
2026-05-07 08:33 -4.32603 103.40156 21243 ft 393 kts 293°
2026-05-07 08:33 -4.31518 103.37654 20752 ft 390 kts 293°
2026-05-07 08:33 -4.30437 103.35169 20252 ft 388 kts 294°
2026-05-07 08:34 -4.29358 103.32692 19743 ft 386 kts 294°
2026-05-07 08:34 -4.28288 103.30236 19259 ft 385 kts 294°
2026-05-07 08:34 -4.27220 103.27786 18749 ft 383 kts 294°
2026-05-07 08:34 -4.26158 103.25344 18249 ft 382 kts 294°
2026-05-07 08:35 -4.25100 103.22911 17745 ft 380 kts 294°
2026-05-07 08:35 -4.24042 103.20489 17303 ft 378 kts 294°
2026-05-07 08:35 -4.22997 103.18095 16939 ft 372 kts 294°
2026-05-07 08:35 -4.21967 103.15731 16562 ft 368 kts 294°
2026-05-07 08:36 -4.20947 103.13393 16211 ft 365 kts 294°
2026-05-07 08:36 -4.19934 103.11070 15860 ft 363 kts 294°
2026-05-07 08:36 -4.18928 103.08757 15512 ft 362 kts 294°
2026-05-07 08:36 -4.17928 103.06452 15161 ft 360 kts 293°
2026-05-07 08:37 -4.16933 103.04156 14811 ft 358 kts 293°
2026-05-07 08:37 -4.15943 103.01872 14462 ft 357 kts 293°
2026-05-07 08:37 -4.14956 102.99598 14121 ft 355 kts 294°
2026-05-07 08:37 -4.13970 102.97336 13771 ft 353 kts 294°
2026-05-07 08:38 -4.12985 102.95087 13420 ft 352 kts 294°
2026-05-07 08:38 -4.12007 102.92848 13071 ft 350 kts 294°
2026-05-07 08:38 -4.11039 102.90617 12724 ft 348 kts 293°
2026-05-07 08:38 -4.10075 102.88396 12324 ft 347 kts 294°
2026-05-07 08:39 -4.09114 102.86187 11923 ft 345 kts 294°
2026-05-07 08:39 -4.08155 102.83991 11528 ft 343 kts 294°
2026-05-07 08:39 -4.07201 102.81807 11137 ft 341 kts 294°
2026-05-07 08:39 -4.06253 102.79636 10738 ft 340 kts 294°
2026-05-07 08:40 -4.05312 102.77472 10294 ft 338 kts 293°
2026-05-07 08:40 -4.04377 102.75318 9876 ft 336 kts 294°
2026-05-07 08:40 -4.03447 102.73181 9477 ft 331 kts 294°
2026-05-07 08:40 -4.02546 102.71115 9101 ft 316 kts 294°
2026-05-07 08:41 -4.01681 102.69134 8725 ft 306 kts 294°
2026-05-07 08:41 -4.00831 102.67186 8473 ft 304 kts 294°
2026-05-07 08:41 -3.99987 102.65251 8236 ft 302 kts 294°
2026-05-07 08:41 -3.99148 102.63326 7997 ft 301 kts 294°
2026-05-07 08:42 -3.98313 102.61410 7797 ft 300 kts 294°
2026-05-07 08:42 -3.97480 102.59499 7597 ft 299 kts 294°
2026-05-07 08:42 -3.96649 102.57594 7405 ft 298 kts 294°
2026-05-07 08:42 -3.95822 102.55695 7240 ft 296 kts 294°
2026-05-07 08:43 -3.95001 102.53808 7116 ft 295 kts 294°
2026-05-07 08:43 -3.94178 102.51921 6987 ft 296 kts 294°
2026-05-07 08:43 -3.93354 102.50036 6874 ft 294 kts 294°
2026-05-07 08:43 -3.92533 102.48161 6750 ft 294 kts 294°
2026-05-07 08:44 -3.91717 102.46293 6621 ft 292 kts 294°
2026-05-07 08:44 -3.90905 102.44433 6501 ft 291 kts 294°
2026-05-07 08:44 -3.90096 102.42578 6384 ft 290 kts 294°
2026-05-07 08:44 -3.89289 102.40728 6257 ft 290 kts 294°
2026-05-07 08:45 -3.88484 102.38883 6132 ft 289 kts 293°
2026-05-07 08:45 -3.87684 102.37042 6006 ft 288 kts 293°
2026-05-07 08:45 -3.86875 102.35212 5893 ft 287 kts 297°
2026-05-07 08:45 -3.85792 102.33541 5770 ft 286 kts 310°
2026-05-07 08:46 -3.84445 102.32075 5641 ft 286 kts 313°
2026-05-07 08:46 -3.83111 102.30642 5525 ft 285 kts 313°
2026-05-07 08:46 -3.81791 102.29221 5397 ft 272 kts 313°
2026-05-07 08:46 -3.80532 102.27862 5280 ft 260 kts 313°
2026-05-07 08:47 -3.79331 102.26563 5152 ft 249 kts 313°
2026-05-07 08:47 -3.78168 102.25304 5027 ft 244 kts 313°
2026-05-07 08:47 -3.77019 102.24061 4913 ft 243 kts 313°
2026-05-07 08:47 -3.75891 102.22843 4814 ft 233 kts 313°
2026-05-07 08:48 -3.74810 102.21674 4717 ft 223 kts 313°
2026-05-07 08:48 -3.73777 102.20557 4724 ft 216 kts 313°
2026-05-07 08:48 -3.72757 102.19453 4731 ft 216 kts 313°
2026-05-07 08:48 -3.71738 102.18351 4731 ft 216 kts 313°
2026-05-07 08:49 -3.70719 102.17251 4722 ft 215 kts 313°
2026-05-07 08:49 -3.69702 102.16150 4722 ft 215 kts 313°
2026-05-07 08:49 -3.68689 102.15049 4721 ft 215 kts 311°
2026-05-07 08:49 -3.68032 102.13738 4721 ft 213 kts 274°
2026-05-07 08:50 -3.68387 102.12333 4724 ft 213 kts 231°
2026-05-07 08:50 -3.69130 102.11683 4723 ft 212 kts 204°
2026-05-07 08:50 -3.70556 102.11506 4732 ft 210 kts 163°
2026-05-07 08:50 -3.71744 102.12307 4756 ft 211 kts 124°
2026-05-07 08:51 -3.72242 102.13677 4735 ft 211 kts 103°
2026-05-07 08:51 -3.72571 102.15112 4721 ft 211 kts 102°
2026-05-07 08:51 -3.72891 102.16551 4607 ft 213 kts 102°
2026-05-07 08:51 -3.73218 102.18001 4182 ft 213 kts 103°
2026-05-07 08:52 -3.73551 102.19463 3658 ft 217 kts 103°
2026-05-07 08:52 -3.74115 102.20832 3356 ft 210 kts 126°
2026-05-07 08:52 -3.75077 102.21893 3090 ft 203 kts 133°
2026-05-07 08:52 -3.76027 102.22901 2822 ft 194 kts 133°
2026-05-07 08:53 -3.76923 102.23853 2571 ft 182 kts 133°
2026-05-07 08:53 -3.77764 102.24746 2348 ft 170 kts 133°
2026-05-07 08:53 -3.78551 102.25582 2133 ft 159 kts 134°
2026-05-07 08:53 -3.79274 102.26351 1923 ft 150 kts 134°
2026-05-07 08:54 -3.79982 102.27102 1724 ft 146 kts 134°
2026-05-07 08:54 -3.80677 102.27841 1531 ft 145 kts 134°
2026-05-07 08:54 -3.81366 102.28573 1343 ft 144 kts 135°
2026-05-07 08:54 -3.82051 102.29302 1151 ft 143 kts 135°
2026-05-07 08:55 -3.82732 102.30025 961 ft 143 kts 135°
2026-05-07 08:55 -3.83414 102.30748 753 ft 143 kts 135°
2026-05-07 08:55 -3.84098 102.31469 562 ft 143 kts 134°
2026-05-07 08:55 -3.84767 102.32199 368 ft 142 kts 134°
2026-05-07 08:56 -3.85452 102.32916 189 ft 142 kts 134°
2026-05-07 08:56 -3.86113 102.33614 82 ft 129 kts 134°
2026-05-07 08:56 -3.86622 102.34159 77 ft 82 kts 133°
2026-05-07 08:56 -3.86872 102.34428 86 ft 38 kts 132°
2026-05-07 08:57 -3.86994 102.34567 82 ft 23 kts 127°
2026-05-07 08:57 -3.87052 102.34645 69 ft 7 kts 186°
2026-05-07 08:57 -3.87046 102.34611 76 ft 6 kts 307°
2026-05-07 08:57 -3.87005 102.34568 82 ft 11 kts 313°
2026-05-07 08:58 -3.86927 102.34485 87 ft 23 kts 313°
2026-05-07 08:58 -3.86806 102.34356 84 ft 25 kts 313°
2026-05-07 08:58 -3.86690 102.34232 74 ft 23 kts 313°
2026-05-07 08:58 -3.86580 102.34115 77 ft 24 kts 313°
2026-05-07 08:59 -3.86477 102.34005 76 ft 21 kts 313°
2026-05-07 08:59 -3.86392 102.33915 78 ft 16 kts 313°
2026-05-07 08:59 -3.86333 102.33852 71 ft 10 kts 313°
2026-05-07 08:59 -3.86281 102.33807 77 ft 9 kts 341°
2026-05-07 09:00 -3.86229 102.33835 77 ft 8 kts 45°
2026-05-07 09:00 -3.86200 102.33863 75 ft 5 kts 44°
2026-05-07 09:00 -3.86152 102.33872 72 ft 8 kts 333°
2026-05-07 09:00 -3.86116 102.33835 70 ft 7 kts 314°
2026-05-07 09:01 -3.86088 102.33805 72 ft 5 kts 312°
2026-05-07 09:01 -3.86068 102.33784 73 ft 3 kts 322°
2026-05-07 09:01 -3.86057 102.33788 63 ft 2 kts 36°
2026-05-07 09:01 -3.86053 102.33795 72 ft 1 kts 55°
2026-05-07 09:02 -3.86051 102.33797 72 ft 0 kts 46°